Time,TemperatureF,DewpointF,PressureIn,WindDirection,WindDirectionDegrees,WindSpeedMPH,WindSpeedGustMPH,Humidity,HourlyPrecipIn,Conditions,Clouds,dailyrainin,SoftwareType,DateUTC
2013-06-30 00:02:00,63.0,57.0,-100.00,North,0,4.0,-999.0,80,-99.99,,,-99.99,,2013-06-30 05:02:00,
2013-06-30 00:12:00,63.0,57.0,-100.00,North,0,4.0,-999.0,80,-99.99,,,-99.99,,2013-06-30 05:12:00,
2013-06-30 00:22:00,62.0,56.0,-100.00,SSE,158,4.0,-999.0,82,-99.99,,,-99.99,,2013-06-30 05:22:00,
2013-06-30 00:33:00,61.0,56.0,-100.00,SSE,158,2.0,-999.0,85,-99.99,,,-99.99,,2013-06-30 05:33:00,
2013-06-30 00:43:00,61.0,56.0,-100.00,SSE,158,2.0,-999.0,85,-99.99,,,-99.99,,2013-06-30 05:43:00,
2013-06-30 00:53:00,61.0,56.0,-100.00,ESE,113,3.0,-999.0,86,-99.99,,,-99.99,,2013-06-30 05:53:00,
2013-06-30 01:02:00,61.0,57.0,-100.00,East,90,3.0,-999.0,86,-99.99,,,-99.99,,2013-06-30 06:02:00,
2013-06-30 01:12:00,61.0,57.0,-100.00,East,90,3.0,-999.0,86,-99.99,,,-99.99,,2013-06-30 06:12:00,
2013-06-30 01:23:00,60.0,56.0,-100.00,NW,315,3.0,-999.0,87,-99.99,,,-99.99,,2013-06-30 06:23:00,
2013-06-30 01:33:00,60.0,56.0,-100.00,NNW,338,4.0,-999.0,88,-99.99,,,-99.99,,2013-06-30 06:33:00,
2013-06-30 01:43:00,60.0,56.0,-100.00,NNW,338,4.0,-999.0,88,-99.99,,,-99.99,,2013-06-30 06:43:00,
2013-06-30 01:53:00,59.0,57.0,-100.00,NNW,338,4.0,-999.0,91,-99.99,,,-99.99,,2013-06-30 06:53:00,
2013-06-30 02:02:00,59.0,56.0,-100.00,North,0,5.0,-999.0,92,-99.99,,,-99.99,,2013-06-30 07:02:00,
2013-06-30 02:12:00,59.0,56.0,-100.00,North,0,5.0,-999.0,92,-99.99,,,-99.99,,2013-06-30 07:12:00,
2013-06-30 02:22:00,59.0,56.0,-100.00,North,0,5.0,-999.0,92,-99.99,,,-99.99,,2013-06-30 07:22:00,
2013-06-30 02:33:00,59.0,56.0,-100.00,NNE,23,2.0,-999.0,92,-99.99,,,-99.99,,2013-06-30 07:33:00,
2013-06-30 02:44:00,59.0,56.0,-100.00,NNE,23,2.0,-999.0,92,-99.99,,,-99.99,,2013-06-30 07:44:00,
2013-06-30 02:53:00,59.0,57.0,-100.00,NNE,23,5.0,-999.0,92,-99.99,,,-99.99,,2013-06-30 07:53:00,
2013-06-30 03:02:00,60.0,57.0,-100.00,North,0,6.0,-999.0,91,-99.99,,,-99.99,,2013-06-30 08:02:00,
2013-06-30 03:11:00,60.0,57.0,-100.00,North,0,6.0,-999.0,91,-99.99,,,-99.99,,2013-06-30 08:11:00,
2013-06-30 03:22:00,59.0,57.0,-100.00,NNE,23,5.0,-999.0,91,-99.99,,,-99.99,,2013-06-30 08:22:00,
2013-06-30 03:33:00,59.0,56.0,-100.00,NNE,23,6.0,-999.0,92,-99.99,,,-99.99,,2013-06-30 08:33:00,
2013-06-30 03:42:00,59.0,56.0,-100.00,NNE,23,6.0,-999.0,92,-99.99,,,-99.99,,2013-06-30 08:42:00,
2013-06-30 03:53:00,58.0,56.0,-100.00,North,0,4.0,-999.0,93,-99.99,,,-99.99,,2013-06-30 08:53:00,
2013-06-30 04:01:00,59.0,57.0,-100.00,North,0,6.0,-999.0,94,-99.99,,,-99.99,,2013-06-30 09:01:00,
2013-06-30 04:12:00,59.0,57.0,-100.00,North,0,6.0,-999.0,94,-99.99,,,-99.99,,2013-06-30 09:12:00,
2013-06-30 04:23:00,58.0,57.0,-100.00,North,0,6.0,-999.0,94,-99.99,,,-99.99,,2013-06-30 09:23:00,
2013-06-30 04:33:00,58.0,56.0,-100.00,NW,315,6.0,-999.0,94,-99.99,,,-99.99,,2013-06-30 09:33:00,
2013-06-30 04:43:00,58.0,56.0,-100.00,NW,315,6.0,-999.0,94,-99.99,,,-99.99,,2013-06-30 09:43:00,
2013-06-30 04:53:00,58.0,56.0,-100.00,North,0,6.0,-999.0,95,-99.99,,,-99.99,,2013-06-30 09:53:00,
2013-06-30 05:02:00,57.0,56.0,-100.00,North,0,6.0,-999.0,95,-99.99,,,-99.99,,2013-06-30 10:02:00,
2013-06-30 05:11:00,57.0,56.0,-100.00,North,0,6.0,-999.0,95,-99.99,,,-99.99,,2013-06-30 10:11:00,
2013-06-30 05:22:00,57.0,55.0,-100.00,North,0,6.0,-999.0,95,-99.99,,,-99.99,,2013-06-30 10:22:00,
2013-06-30 05:33:00,56.0,55.0,-100.00,North,0,5.0,-999.0,96,-99.99,,,-99.99,,2013-06-30 10:33:00,
2013-06-30 05:42:00,56.0,55.0,-100.00,North,0,5.0,-999.0,96,-99.99,,,-99.99,,2013-06-30 10:42:00,
2013-06-30 05:53:00,56.0,55.0,-100.00,North,0,6.0,-999.0,96,-99.99,,,-99.99,,2013-06-30 10:53:00,
2013-06-30 06:02:00,56.0,55.0,-100.00,North,0,6.0,-999.0,96,-99.99,,,-99.99,,2013-06-30 11:02:00,
2013-06-30 06:11:00,56.0,55.0,-100.00,North,0,6.0,-999.0,96,-99.99,,,-99.99,,2013-06-30 11:11:00,
2013-06-30 06:22:00,56.0,55.0,-100.00,North,0,6.0,-999.0,96,-99.99,,,-99.99,,2013-06-30 11:22:00,
2013-06-30 06:33:00,55.0,54.0,-100.00,North,0,7.0,-999.0,96,-99.99,,,-99.99,,2013-06-30 11:33:00,
2013-06-30 06:43:00,55.0,54.0,-100.00,North,0,7.0,-999.0,96,-99.99,,,-99.99,,2013-06-30 11:43:00,
2013-06-30 06:53:00,55.0,54.0,-100.00,NW,315,5.0,-999.0,96,-99.99,,,-99.99,,2013-06-30 11:53:00,
2013-06-30 07:02:00,56.0,55.0,-100.00,NNE,23,5.0,-999.0,96,-99.99,,,-99.99,,2013-06-30 12:02:00,
2013-06-30 07:11:00,56.0,55.0,-100.00,NNE,23,5.0,-999.0,96,-99.99,,,-99.99,,2013-06-30 12:11:00,
2013-06-30 07:24:00,56.0,55.0,-100.00,North,0,7.0,-999.0,96,-99.99,,,-99.99,,2013-06-30 12:24:00,
2013-06-30 07:33:00,58.0,57.0,-100.00,North,0,6.0,-999.0,96,-99.99,,,-99.99,,2013-06-30 12:33:00,
2013-06-30 07:43:00,58.0,57.0,-100.00,North,0,6.0,-999.0,96,-99.99,,,-99.99,,2013-06-30 12:43:00,
2013-06-30 07:52:00,59.0,57.0,-100.00,NNE,23,6.0,-999.0,94,-99.99,,,-99.99,,2013-06-30 12:52:00,
2013-06-30 08:02:00,60.0,58.0,-100.00,North,0,7.0,-999.0,92,-99.99,,,-99.99,,2013-06-30 13:02:00,
2013-06-30 08:12:00,60.0,58.0,-100.00,North,0,7.0,-999.0,92,-99.99,,,-99.99,,2013-06-30 13:12:00,
2013-06-30 08:22:00,62.0,58.0,-100.00,NNE,23,8.0,-999.0,89,-99.99,,,-99.99,,2013-06-30 13:22:00,
2013-06-30 08:33:00,63.0,58.0,-100.00,North,0,9.0,-999.0,85,-99.99,,,-99.99,,2013-06-30 13:33:00,
2013-06-30 08:43:00,63.0,58.0,-100.00,North,0,9.0,-999.0,85,-99.99,,,-99.99,,2013-06-30 13:43:00,
2013-06-30 08:53:00,64.0,58.0,-100.00,North,0,7.0,-999.0,81,-99.99,,,-99.99,,2013-06-30 13:53:00,
2013-06-30 09:02:00,65.0,58.0,-100.00,North,0,8.0,-999.0,78,-99.99,,,-99.99,,2013-06-30 14:02:00,
2013-06-30 09:11:00,65.0,58.0,-100.00,North,0,8.0,-999.0,78,-99.99,,,-99.99,,2013-06-30 14:11:00,
2013-06-30 09:22:00,66.0,58.0,-100.00,NNE,23,6.0,-999.0,74,-99.99,,,-99.99,,2013-06-30 14:22:00,
2013-06-30 09:33:00,67.0,57.0,-100.00,NNE,23,7.0,-999.0,70,-99.99,,,-99.99,,2013-06-30 14:33:00,
2013-06-30 09:44:00,67.0,57.0,-100.00,NNE,23,7.0,-999.0,70,-99.99,,,-99.99,,2013-06-30 14:44:00,
2013-06-30 09:52:00,69.0,57.0,-100.00,NE,45,8.0,-999.0,65,-99.99,,,-99.99,,2013-06-30 14:52:00,
2013-06-30 10:02:00,70.0,56.0,-100.00,NE,45,9.0,-999.0,59,-99.99,,,-99.99,,2013-06-30 15:02:00,
2013-06-30 10:12:00,70.0,56.0,-100.00,NE,45,9.0,-999.0,59,-99.99,,,-99.99,,2013-06-30 15:12:00,
2013-06-30 10:23:00,70.0,54.0,-100.00,NE,45,11.0,-999.0,57,-99.99,,,-99.99,,2013-06-30 15:23:00,
2013-06-30 10:34:00,71.0,54.0,-100.00,NNE,23,7.0,-999.0,55,-99.99,,,-99.99,,2013-06-30 15:34:00,
2013-06-30 10:44:00,71.0,54.0,-100.00,NNE,23,7.0,-999.0,55,-99.99,,,-99.99,,2013-06-30 15:44:00,
2013-06-30 10:53:00,72.0,53.0,-100.00,NNE,23,3.0,-999.0,51,-99.99,,,-99.99,,2013-06-30 15:53:00,
2013-06-30 11:01:00,72.0,52.0,-100.00,NE,45,5.0,-999.0,49,-99.99,,,-99.99,,2013-06-30 16:01:00,
2013-06-30 11:11:00,72.0,52.0,-100.00,NE,45,5.0,-999.0,49,-99.99,,,-99.99,,2013-06-30 16:11:00,
2013-06-30 11:21:00,73.0,53.0,-100.00,NNE,23,7.0,-999.0,49,-99.99,,,-99.99,,2013-06-30 16:21:00,
2013-06-30 11:34:00,73.0,53.0,-100.00,NNE,23,9.0,-999.0,49,-99.99,,,-99.99,,2013-06-30 16:34:00,
2013-06-30 11:44:00,73.0,53.0,-100.00,NNE,23,9.0,-999.0,49,-99.99,,,-99.99,,2013-06-30 16:44:00,
2013-06-30 11:53:00,74.0,53.0,-100.00,NNE,23,10.0,-999.0,48,-99.99,,,-99.99,,2013-06-30 16:53:00,
2013-06-30 12:01:00,75.0,53.0,-100.00,NE,45,9.0,-999.0,47,-99.99,,,-99.99,,2013-06-30 17:01:00,
2013-06-30 12:11:00,75.0,53.0,-100.00,NE,45,9.0,-999.0,47,-99.99,,,-99.99,,2013-06-30 17:11:00,
2013-06-30 12:23:00,75.0,53.0,-100.00,NNE,23,14.0,-999.0,46,-99.99,,,-99.99,,2013-06-30 17:23:00,
2013-06-30 12:34:00,75.0,-99.9,-100.00,NNE,23,14.0,-999.0,41,-99.99,,,-99.99,,2013-06-30 17:34:00,
2013-06-30 12:43:00,75.0,-99.9,-100.00,NNE,23,14.0,-999.0,41,-99.99,,,-99.99,,2013-06-30 17:43:00,
2013-06-30 12:52:00,75.0,50.0,-100.00,NE,45,15.0,-999.0,42,-99.99,,,-99.99,,2013-06-30 17:52:00,
2013-06-30 13:02:00,75.0,51.0,-100.00,NNE,23,15.0,-999.0,42,-99.99,,,-99.99,,2013-06-30 18:02:00,
2013-06-30 13:22:00,75.0,50.0,-100.00,NE,45,13.0,-999.0,42,-99.99,,,-99.99,,2013-06-30 18:22:00,
2013-06-30 13:34:00,77.0,50.0,-100.00,NE,45,13.0,-999.0,40,-99.99,,,-99.99,,2013-06-30 18:34:00,
2013-06-30 13:43:00,77.0,50.0,-100.00,NE,45,13.0,-999.0,40,-99.99,,,-99.99,,2013-06-30 18:43:00,
2013-06-30 13:53:00,76.0,50.0,-100.00,NNE,23,11.0,-999.0,40,-99.99,,,-99.99,,2013-06-30 18:53:00,
2013-06-30 14:01:00,75.0,50.0,-100.00,NNE,23,12.0,-999.0,41,-99.99,,,-99.99,,2013-06-30 19:01:00,
2013-06-30 14:11:00,75.0,50.0,-100.00,NNE,23,12.0,-999.0,41,-99.99,,,-99.99,,2013-06-30 19:11:00,
2013-06-30 14:22:00,77.0,48.0,-100.00,NNE,23,15.0,-999.0,37,-99.99,,,-99.99,,2013-06-30 19:22:00,
2013-06-30 14:33:00,77.0,49.0,-100.00,NNE,23,13.0,-999.0,38,-99.99,,,-99.99,,2013-06-30 19:33:00,
2013-06-30 14:43:00,77.0,49.0,-100.00,NNE,23,13.0,-999.0,38,-99.99,,,-99.99,,2013-06-30 19:43:00,
2013-06-30 14:53:00,76.0,49.0,-100.00,NE,45,12.0,-999.0,39,-99.99,,,-99.99,,2013-06-30 19:53:00,
2013-06-30 15:01:00,77.0,48.0,-100.00,NNE,23,13.0,-999.0,37,-99.99,,,-99.99,,2013-06-30 20:01:00,
2013-06-30 15:11:00,77.0,48.0,-100.00,NNE,23,13.0,-999.0,37,-99.99,,,-99.99,,2013-06-30 20:11:00,
2013-06-30 15:22:00,77.0,48.0,-100.00,NNE,23,16.0,-999.0,36,-99.99,,,-99.99,,2013-06-30 20:22:00,
2013-06-30 15:34:00,76.0,47.0,-100.00,NE,45,15.0,-999.0,36,-99.99,,,-99.99,,2013-06-30 20:34:00,
2013-06-30 15:42:00,76.0,47.0,-100.00,NE,45,15.0,-999.0,36,-99.99,,,-99.99,,2013-06-30 20:42:00,
2013-06-30 15:52:00,77.0,48.0,-100.00,NNE,23,16.0,-999.0,37,-99.99,,,-99.99,,2013-06-30 20:52:00,
2013-06-30 16:01:00,77.0,48.0,-100.00,NE,45,12.0,-999.0,36,-99.99,,,-99.99,,2013-06-30 21:01:00,
2013-06-30 16:11:00,77.0,48.0,-100.00,NE,45,12.0,-999.0,36,-99.99,,,-99.99,,2013-06-30 21:11:00,
2013-06-30 16:22:00,78.0,48.0,-100.00,NNE,23,12.0,-999.0,36,-99.99,,,-99.99,,2013-06-30 21:22:00,
2013-06-30 16:34:00,76.0,48.0,-100.00,NE,45,13.0,-999.0,37,-99.99,,,-99.99,,2013-06-30 21:34:00,
2013-06-30 16:43:00,76.0,48.0,-100.00,NE,45,13.0,-999.0,37,-99.99,,,-99.99,,2013-06-30 21:43:00,
2013-06-30 16:53:00,77.0,47.0,-100.00,NE,45,15.0,-999.0,35,-99.99,,,-99.99,,2013-06-30 21:53:00,
2013-06-30 17:01:00,77.0,46.0,-100.00,NE,45,12.0,-999.0,34,-99.99,,,-99.99,,2013-06-30 22:01:00,
2013-06-30 17:11:00,77.0,46.0,-100.00,NE,45,12.0,-999.0,34,-99.99,,,-99.99,,2013-06-30 22:11:00,
2013-06-30 17:22:00,77.0,47.0,-100.00,NE,45,11.0,-999.0,35,-99.99,,,-99.99,,2013-06-30 22:22:00,
2013-06-30 17:34:00,77.0,46.0,-100.00,NNE,23,12.0,-999.0,34,-99.99,,,-99.99,,2013-06-30 22:34:00,
2013-06-30 17:43:00,77.0,46.0,-100.00,NNE,23,12.0,-999.0,34,-99.99,,,-99.99,,2013-06-30 22:43:00,
2013-06-30 17:53:00,77.0,46.0,-100.00,NNE,23,12.0,-999.0,34,-99.99,,,-99.99,,2013-06-30 22:53:00,
2013-06-30 18:01:00,77.0,47.0,-100.00,NE,45,13.0,-999.0,34,-99.99,,,-99.99,,2013-06-30 23:01:00,
2013-06-30 18:11:00,77.0,47.0,-100.00,NE,45,13.0,-999.0,34,-99.99,,,-99.99,,2013-06-30 23:11:00,
2013-06-30 18:22:00,76.0,46.0,-100.00,NE,45,8.0,-999.0,34,-99.99,,,-99.99,,2013-06-30 23:22:00,
2013-06-30 18:33:00,77.0,47.0,-100.00,NE,45,10.0,-999.0,35,-99.99,,,-99.99,,2013-06-30 23:33:00,
2013-06-30 18:43:00,77.0,47.0,-100.00,NE,45,10.0,-999.0,35,-99.99,,,-99.99,,2013-06-30 23:43:00,
2013-06-30 18:53:00,77.0,47.0,-100.00,NE,45,11.0,-999.0,35,-99.99,,,-99.99,,2013-06-30 23:53:00,
2013-06-30 19:01:00,76.0,47.0,-100.00,NE,45,8.0,-999.0,35,-99.99,,,-99.99,,2013-07-01 00:01:00,
2013-06-30 19:11:00,76.0,47.0,-100.00,NE,45,8.0,-999.0,35,-99.99,,,-99.99,,2013-07-01 00:11:00,
2013-06-30 19:22:00,77.0,46.0,-100.00,NE,45,13.0,-999.0,34,-99.99,,,-99.99,,2013-07-01 00:22:00,
2013-06-30 19:33:00,76.0,47.0,-100.00,NE,45,10.0,-999.0,35,-99.99,,,-99.99,,2013-07-01 00:33:00,
2013-06-30 19:42:00,76.0,47.0,-100.00,NE,45,10.0,-999.0,35,-99.99,,,-99.99,,2013-07-01 00:42:00,
2013-06-30 19:52:00,76.0,46.0,-100.00,NE,45,7.0,-999.0,35,-99.99,,,-99.99,,2013-07-01 00:52:00,
2013-06-30 20:01:00,76.0,47.0,-100.00,NNE,23,6.0,-999.0,37,-99.99,,,-99.99,,2013-07-01 01:01:00,
2013-06-30 20:11:00,76.0,47.0,-100.00,NNE,23,6.0,-999.0,37,-99.99,,,-99.99,,2013-07-01 01:11:00,
2013-06-30 20:22:00,75.0,49.0,-100.00,NE,45,4.0,-999.0,40,-99.99,,,-99.99,,2013-07-01 01:22:00,
2013-06-30 20:33:00,73.0,48.0,-100.00,NE,45,7.0,-999.0,42,-99.99,,,-99.99,,2013-07-01 01:33:00,
2013-06-30 20:42:00,73.0,48.0,-100.00,NE,45,7.0,-999.0,42,-99.99,,,-99.99,,2013-07-01 01:42:00,
2013-06-30 20:52:00,71.0,49.0,-100.00,NNE,23,4.0,-999.0,45,-99.99,,,-99.99,,2013-07-01 01:52:00,
2013-06-30 21:02:00,70.0,49.0,-100.00,NNE,23,4.0,-999.0,48,-99.99,,,-99.99,,2013-07-01 02:02:00,
2013-06-30 21:11:00,70.0,49.0,-100.00,NNE,23,4.0,-999.0,48,-99.99,,,-99.99,,2013-07-01 02:11:00,
2013-06-30 21:22:00,69.0,50.0,-100.00,NNE,23,5.0,-999.0,52,-99.99,,,-99.99,,2013-07-01 02:22:00,
2013-06-30 21:43:00,66.0,51.0,-100.00,NNE,23,5.0,-999.0,58,-99.99,,,-99.99,,2013-07-01 02:43:00,
2013-06-30 21:53:00,65.0,51.0,-100.00,North,0,5.0,-999.0,60,-99.99,,,-99.99,,2013-07-01 02:53:00,
2013-06-30 22:01:00,65.0,52.0,-100.00,North,0,4.0,-999.0,63,-99.99,,,-99.99,,2013-07-01 03:01:00,
2013-06-30 22:11:00,65.0,52.0,-100.00,North,0,4.0,-999.0,63,-99.99,,,-99.99,,2013-07-01 03:11:00,
2013-06-30 22:23:00,64.0,53.0,-100.00,North,0,4.0,-999.0,66,-99.99,,,-99.99,,2013-07-01 03:23:00,
2013-06-30 22:33:00,63.0,53.0,-100.00,North,0,5.0,-999.0,68,-99.99,,,-99.99,,2013-07-01 03:33:00,
2013-06-30 22:43:00,63.0,53.0,-100.00,North,0,5.0,-999.0,68,-99.99,,,-99.99,,2013-07-01 03:43:00,
2013-06-30 22:52:00,62.0,53.0,-100.00,North,0,5.0,-999.0,72,-99.99,,,-99.99,,2013-07-01 03:52:00,
2013-06-30 23:01:00,63.0,53.0,-100.00,North,0,4.0,-999.0,70,-99.99,,,-99.99,,2013-07-01 04:01:00,
2013-06-30 23:11:00,63.0,53.0,-100.00,North,0,4.0,-999.0,70,-99.99,,,-99.99,,2013-07-01 04:11:00,
2013-06-30 23:22:00,61.0,53.0,-100.00,North,0,6.0,-999.0,75,-99.99,,,-99.99,,2013-07-01 04:22:00,
2013-06-30 23:32:00,60.0,53.0,-100.00,North,0,5.0,-999.0,77,-99.99,,,-99.99,,2013-07-01 04:32:00,
2013-06-30 23:42:00,60.0,53.0,-100.00,North,0,5.0,-999.0,77,-99.99,,,-99.99,,2013-07-01 04:42:00,
2013-06-30 23:53:00,60.0,53.0,-100.00,North,0,6.0,-999.0,77,-99.99,,,-99.99,,2013-07-01 04:53:00,